Home   Weather   Villeurbanne   Past weeks

Flag for France Past Weather in Villeurbanne, Rhône-Alpes, France — Yesterday and Last 2 Weeks

Now
23 °F

Ice fog.


Feels Like: 23 °F
Forecast: 23 / 34 °F
Wind: 1 mph from Southeast

Location: Lyon / Bron

Current Time: Jan 21, 2017 at 9:54:40 am

Latest Report: Jan 21, 2017 at 9:00 am


Visibility: 2 mi

Pressure: 30.33 "Hg

Humidity: 93%

Dew Point: 21 °F

Location of VilleurbanneLocation

Past Weather in Villeurbanne — Graph

°F

Villeurbanne Temperature Yesterday

Maximum temperature yesterday: 37 °F (at 3:00 pm)
Minimum temperature yesterday: 18 °F (at 4:00 am)
Average temperature yesterday: 25 °F

High & Low Weather Summary for the Past Weeks

 TemperatureHumidityPressure
High50 °F (Jan 12, 8:00 pm)100% (Jan 10, 11:00 am)30.57 "Hg (Jan 10, 11:00 am)
Low18 °F (Jan 19, 4:30 am)51% (Jan 7, 3:00 pm)29.68 "Hg (Jan 12, 10:30 pm)
Average32 °F78%30.22 "Hg
* Reported Jan 6 8:00 am — Jan 21 8:30 am, Villeurbanne, Weather by CustomWeather, © 2017

Note: Actual official high and low records may vary slightly from our data, if they occured in-between our weather recording intervals... More about our weather records

Advertising

Villeurbanne Weather History for the Previous 24 Hours

Scroll right to see more
 ConditionsComfort  
Time TempWeatherWind HumidityBarometerVisibility
8:30 am
Sat, Jan 21
21 °FIce fog.No wind93%30.33 "Hg2 mi
8:00 am21 °FIce fog.2 mph93%30.33 "Hg2 mi
7:30 am21 °FIce fog.No wind93%30.33 "Hg2 mi
7:00 am23 °FIce fog.No wind93%30.33 "Hg2 mi
6:30 am23 °FIce fog.No wind93%30.33 "Hg2 mi
6:00 am23 °FIce fog.2 mph93%30.33 "Hg2 mi
5:30 am23 °FIce fog.No wind93%30.33 "Hg2 mi
5:00 am21 °FIce fog.2 mph93%30.33 "Hg2 mi
4:30 am21 °FIce fog.No wind93%30.36 "Hg2 mi
4:00 am21 °FIce fog.No wind86%30.36 "Hg2 mi
3:30 am21 °FIce fog.No wind93%30.36 "Hg2 mi
3:00 am21 °FIce fog.No wind93%30.36 "Hg2 mi
2:30 am21 °FIce fog.1 mph93%30.36 "Hg2 mi
2:00 am21 °FIce fog.1 mph93%30.36 "Hg2 mi
1:30 am21 °FIce fog.No wind93%30.36 "Hg2 mi
1:00 am23 °FIce fog.2 mph93%30.36 "Hg2 mi
12:30 am23 °FIce fog.No wind93%30.36 "Hg2 mi
12:00 am23 °FIce fog.No wind93%30.36 "Hg2 mi
11:30 pm
Fri, Jan 20
25 °FIce fog.5 mph93%30.36 "Hg2 mi
11:00 pm25 °FIce fog.1 mph86%30.36 "Hg2 mi
10:30 pm25 °FIce fog.No wind86%30.36 "Hg3 mi
10:00 pm25 °FIce fog.No wind93%30.36 "Hg3 mi
9:30 pm25 °FIce fog.1 mph93%30.36 "Hg3 mi
9:00 pm25 °FIce fog.No wind93%30.36 "Hg3 mi
8:30 pm27 °FIce fog.1 mph86%30.36 "Hg3 mi
8:00 pm27 °FIce fog.No wind86%30.36 "Hg3 mi
7:30 pm28 °FIce fog.No wind80%30.36 "Hg3 mi
7:00 pm28 °FClear.No wind80%30.36 "Hg4 mi
6:30 pm30 °FClear.No wind75%30.36 "Hg4 mi
6:00 pm32 °FClear.2 mph69%30.36 "Hg4 mi
5:30 pm34 °FClear.2 mph70%30.36 "Hg4 mi
5:00 pm34 °FClear.3 mph70%30.36 "Hg4 mi
4:30 pm36 °FClear.5 mph65%30.36 "Hg4 mi
4:00 pm36 °FClear.2 mph65%30.36 "Hg4 mi
3:30 pm37 °FClear.2 mph60%30.36 "Hg4 mi
3:00 pm37 °FClear.3 mph60%30.36 "Hg4 mi
2:30 pm36 °FClear.3 mph65%30.36 "Hg4 mi
2:00 pm36 °FClear.2 mph65%30.36 "Hg4 mi
1:30 pm36 °FClear.2 mph65%30.36 "Hg4 mi
1:00 pm34 °FClear.No wind65%30.39 "Hg4 mi
12:30 pm32 °FClear.2 mph69%30.39 "Hg4 mi
12:00 pm30 °FIce fog.3 mph75%30.39 "Hg3 mi
11:30 am28 °FIce fog.No wind80%30.42 "Hg2 mi
11:00 am25 °FIce fog.No wind86%30.42 "Hg2 mi
10:30 am27 °FIce fog.No wind80%30.42 "Hg2 mi
10:00 am25 °FIce fog.No wind86%30.42 "Hg2 mi
9:30 am21 °FIce fog.No wind93%30.42 "Hg2 mi
9:00 am19 °FIce fog.1 mph93%30.39 "Hg2 mi
Weather by CustomWeather, © 2017

See weather overviewHow to use our weather pages